Tracking 19832 objects as of 25-Aug-2019
HD Live streaming from Space Station
objects crossing your sky now

COSMOS 1823 DEB

Track COSMOS 1823 DEB now!
10-day predictions


NORAD ID: 18751
Int'l Code: 1987-020AC
Perigee: 1,482.8 km
Apogee: 1,606.1 km
Inclination: 73.6 °
Period: 116.8 minutes
Semi major axis: 7915 km
RCS: 0.1997 m2 (medium)
Launch date: February 20, 1987
Source: Commonwealth of Independent States (former USSR) (CIS)
Launch site: PLESETSK MISSILE AND SPACE COMPLEX (PKMTR)

Note: This is SATELLITE DEBRIS
aabbcc
Your satellite tracking list
Your tracking list is empty




NASA's NSSDC Master Catalog

Two Line Element Set (TLE):
1 18751U 87020AC  19236.94629080 +.00000028 +00000-0 +36364-3 0  9993
2 18751 073.6286 059.3092 0077882 070.7668 044.1730 12.32793526425550
Source of the keplerian elements: AFSPC